Flag for Panama Weather past 2 weeks in Colón, Panama

75 °F

Passing clouds.

Feels Like: 73 °F
Forecast: 77 / 83 °F
Wind: No wind

Location: Panama Airport

Current Time: Nov 25, 2015 at 4:14:00 AM

Latest Report: Nov 25, 2015 at 3:00 AM

Visibility: N/A

Pressure: 29.74 "Hg

Humidity: 100%

Dew point: 75 °F

Location of ColónLocation

Historic Weather in Colón — Graph


Colón temperature yesterday

Maximum temperature yesterday: 81 °F (at 4:00 PM)
Minimum temperature yesterday: 75 °F (at 10:00 AM)
Average temperature yesterday: 77 °F

Past Weeks' High & Low Weather Summary

High91 °F (Nov 13, 12:00 PM)100% (Nov 10, 3:00 AM)29.89 "Hg (Nov 10, 3:00 AM)
Low72 °F (Nov 15, 4:12 PM)67% (Nov 12, 3:00 PM)29.65 "Hg (Nov 13, 5:00 PM)
Average80 °F91%29.77 "Hg
* Reported Nov 10 3:00 AM — Nov 25 3:00 AM, Colón, Weather by CustomWeather, © 2015

Note: Actual official high and low records may vary slightly from our data, if they occured in-between our weather recording intervals... More about our weather records


Colón weather history for previous 24 hours

Time TempWeatherWind HumidityBarometerVisibility
3:00 AM
Wed, Nov 25
75 °FPassing clouds.No wind100%29.74 "HgN/A
1:00 AM77 °FPassing clouds.6 mph94%29.77 "HgN/A
12:00 AM77 °FPassing clouds.6 mph94%29.80 "HgN/A
11:00 PM
Tue, Nov 24
77 °FPassing clouds.No wind94%29.83 "HgN/A
9:00 PM77 °FPassing clouds.No wind94%29.83 "HgN/A
8:00 PM77 °FPassing clouds.No wind94%29.80 "HgN/A
7:00 PM77 °FPassing clouds.6 mph94%29.77 "HgN/A
6:00 PM79 °FPassing clouds.8 mph89%29.74 "HgN/A
5:00 PM79 °FScattered clouds.No wind89%29.74 "HgN/A
4:00 PM81 °FBroken clouds.6 mph89%29.74 "HgN/A
3:00 PM79 °FBroken clouds.No wind89%29.74 "HgN/A
2:00 PM77 °FOvercast.7 mph94%29.77 "HgN/A
1:00 PM77 °FLight rain. Broken clouds.No wind100%29.80 "Hg6 mi
12:00 PM77 °FScattered showers. More clouds than sun.No wind94%29.83 "Hg6 mi
11:00 AM77 °FLight rain. More clouds than sun.No wind94%29.86 "Hg6 mi
10:00 AM75 °FHeavy rain. More clouds than sun.6 mph94%29.86 "Hg2 mi
9:00 AM77 °FThunderstorms. More clouds than sun.5 mph94%29.83 "Hg2 mi
8:00 AM77 °FLight rain. Broken clouds.No wind100%29.83 "Hg4 mi
7:00 AM77 °FScattered showers. Broken clouds.No wind100%29.80 "Hg6 mi
6:00 AM77 °FPassing clouds.No wind94%29.80 "HgN/A
5:00 AM77 °FPassing clouds.No wind100%29.77 "HgN/A
4:00 AM77 °FPassing clouds.No wind100%29.77 "HgN/A
Weather by CustomWeather, © 2015

See weather overviewHow to use our weather pages